Home   Weather   Valdez   Past weeks
Flag for USA

Past Weather in Valdez, Alaska, USA — Yesterday and Last 2 Weeks

Now
34 °F

Sunny.


Feels Like: 22 °F
Forecast: 32 / 13 °F
Wind: 23 mph from East

Location: Valdez 2

Current Time: Mar 30, 2020 at 5:50:40 pm

Latest Report: Mar 30, 2020 at 4:56 pm


Visibility: 20 mi

Pressure: 30.03 "Hg

Humidity: 18%

Dew Point: -6 °F

Location of ValdezLocation

Past Weather in Valdez — Graph

°F

Valdez Temperature Yesterday

Maximum temperature yesterday: 30 °F (at 4:56 pm)
Minimum temperature yesterday: 23 °F (at 7:56 am)
Average temperature yesterday: 27 °F

High & Low Weather Summary for the Past Weeks

 TemperatureHumidityPressure
High51 °F (Mar 18, 3:56 pm)100% (Mar 20, 6:12 am)30.58 "Hg (Mar 20, 6:12 am)
Low18 °F (Mar 16, 6:56 am)16% (Mar 30, 1:56 pm)29.54 "Hg (Mar 28, 4:56 pm)
Average34 °F57%30.12 "Hg
* Reported Mar 15 3:56 pm — Mar 30 3:56 pm, Valdez. Weather by CustomWeather, © 2020

Note: Actual official high and low records may vary slightly from our data, if they occured in-between our weather recording intervals... More about our weather records

Valdez Weather History for the Previous 24 Hours

Scroll right to see more
 ConditionsComfort  
Time TempWeatherWind HumidityBarometerVisibility
3:56 pm
Mon, Mar 30
34 °FSunny.18 mph18%30.02 "Hg20 mi
2:56 pm32 °FSunny.22 mph27%30.02 "Hg20 mi
1:56 pm34 °FSunny.10 mph16%30.01 "Hg20 mi
12:56 pm32 °FSunny.13 mph19%30.00 "Hg20 mi
11:56 am30 °FSunny.16 mph20%29.98 "Hg20 mi
10:56 am30 °FSunny.21 mph19%29.98 "Hg20 mi
9:56 am28 °FSunny.25 mph20%29.96 "Hg20 mi
8:56 am29 °FSunny.21 mphN/A29.96 "Hg10 mi
7:56 am27 °FSunny.20 mph22%29.96 "Hg20 mi
6:56 am26 °FClear.18 mph21%29.96 "Hg10 mi
6:10 am27 °FClear.17 mph22%29.95 "Hg10 mi
4:56 am27 °FClear.25 mphN/A29.94 "Hg10 mi
3:06 am27 °FClear.13 mph22%29.97 "Hg10 mi
1:56 am27 °FClear.5 mph23%29.94 "Hg10 mi
10:56 pm
Sun, Mar 29
26 °FClear.15 mph24%29.94 "Hg10 mi
9:56 pm28 °FClear.14 mph22%29.93 "Hg10 mi
8:56 pm27 °FClear.21 mph26%29.91 "Hg10 mi
7:56 pm28 °FPassing clouds.26 mph22%29.89 "Hg10 mi
7:43 pm28 °FSunny.17 mph22%29.89 "Hg20 mi
6:56 pm28 °FSunny.21 mph22%29.88 "Hg20 mi
5:56 pm28 °FSunny.25 mph24%29.88 "Hg20 mi
Weather by CustomWeather, © 2020

See weather overview

Advertising